Location: Mohawk View
(42.7837°N, 73.7885°W)
Time: 13:14:55
(UTC+00:00)

Cosmos 1758 - Pass Details

Date: 17 June 2021
Orbit: 538 x 562 km, 82.5° (Epoch: 26 July)

Event Time Altitude Azimuth Distance (km) Brightness Sun altitude
Rises 01:25:03 0° 358° (N) 2,714 7.6 -7.9°
Reaches altitude 10° 01:27:18 10° 4° (N) 1,813 6.5 -8.2°
Maximum altitude 01:31:08 44° 78° (ENE) 750 3.8 -8.8°
Enters shadow 01:34:41 11° 151° (SSE) 1,705 5.2 -9.2°
